Regional Weather Roundup
Issued by NWS

Home | Current Version | Previous Version | Text Only | Print | Product List | Glossary On
Versions: 1 2 3 4 5 6 7 8 9 10 11 12 13 14 15 16 17 18 19 20 21 22 23 24 25 26 27 28 29 30 31 32 33 34 35 36 37 38 39 40 41 42 43 44 45 46 47 48 49 50
000
ASUS45 KBOU 012007
RWRCO

WEATHER ROUNDUP FOR COLORADO
NATIONAL WEATHER SERVICE DENVER/BOULDER CO
100 PM MST SUN FEB 01 2015

NOTE: "FAIR" INDICATES FEW OR NO CLOUDS BELOW 12000 FEET WITH NO
SIGNIFICANT WEATHER AND/OR OBSTRUCTIONS TO VISIBILITY.

COZ001>005-013-030-031-012100-
...NORTHWEST COLORADO...

CITY           SKY/WX    TMP DP  RH WIND       PRES   REMARKS
CRAIG          SUNNY     32  18  56 W9        30.18F WCI  24
HAYDEN         SUNNY     30  14  51 W13       30.17F WCI  20
MEEKER         SUNNY     30  18  60 CALM      30.17F
MOUNT WERNER   NOT AVBL
STEAMBOAT SPGS SUNNY     29  15  54 SW5       30.16S WCI  24
WALDEN         CLOUDY    23  14  68 N9        30.10S WCI  13
$$

COZ006>008-011-012100-
...WEST CENTRAL VALLEYS...

CITY           SKY/WX    TMP DP  RH WIND       PRES   REMARKS
GRAND JUNCTION SUNNY     44  26  49 CALM      30.18F
MONTROSE       SUNNY     44  22  41 VRB5      30.18F
EAGLE          SUNNY     37  10  32 SW12G18   30.15F
RIFLE          SUNNY     37  21  52 CALM      30.18F
DELTA          SUNNY     45  29  53 CALM      30.18F
NUCLA          SUNNY     41  30  65 NW6       30.21F
$$

COZ017>023-064>068-012100-
...SOUTHWEST COLORADO...

CITY           SKY/WX    TMP DP  RH WIND       PRES   REMARKS
DURANGO        MOSUNNY   36  27  69 CALM      30.12F
CORTEZ         SUNNY     49   9  19 NW17      30.13F
PAGOSA SPRINGS CLOUDY    35  25  69 S6        30.12F WCI  29
TELLURIDE      SUNNY     33  -3  21 N8        30.16F WCI  26
WOLF CREEK PAS SUNNY     23   0  36 NW7G28    30.13F WCI  15
$$

COZ009-010-012-014-032>034-037-058>063-012100-
...CENTRAL COLORADO...

CITY           SKY/WX    TMP DP  RH WIND       PRES   REMARKS
ASPEN          SUNNY     33   7  33 N12G18    30.13F WCI  24
BUENA VISTA    SUNNY     36  -2  20 E7        30.00F
COPPER MTN     SUNNY     14  -4  44 W38G48    30.01S HAZE    WCI  -9
BERTHOUD PASS  NOT AVBL
COTTONWOOD PAS SUNNY     32 -22   9 W22G35    29.99F WCI  19
GUNNISON       CLOUDY    36   7  30 W10       30.14F
KREMMLING      SUNNY     32   1  27 NW15G24   30.13S HAZE    WCI  22
LEADVILLE      SUNNY     21  -1  38 W16G29    30.04F WCI   7
MONARCH PASS     N/A     12   9  85 MISG      30.12F
SALIDA         SUNNY     39   3  21 CALM      30.09S
SUNLIGHT       SUNNY     21  12  68 W5          N/A  WCI  15
WILKERSON PASS SUNNY     19  -6  32 NW13G36   29.98F WCI   7
$$

COZ069>075-012100-
...SAN LUIS VALLEY/SANGRE DE CRISTO MOUNTAINS...

CITY           SKY/WX    TMP DP  RH WIND       PRES   REMARKS
ALAMOSA        SUNNY     34  16  47 SE6       30.07F WCI  29
LA VETA PASS   SUNNY     27  18  69 SW6       30.01F WCI  20
SAGUACHE       SUNNY     34  10  37 NW23      30.05F WCI  22
$$

COZ035-036-038>040-012100-
...NORTHERN COLORADO FRONT RANGE...

CITY           SKY/WX    TMP DP  RH WIND       PRES   REMARKS
DENVER INTL AP CLOUDY    22  17  81 E6        30.15S WCI  14
DMNS CITY PARK   N/A     23  20  87 E7        30.14S WCI  15
AURORA         FLURRIES  21  17  83 E7        30.14F WCI  13
FRONT RANGE AP CLOUDY    23  18  80 CALM      30.16  FOG
ERIE MUNI ARPT PTSUNNY   28  20  74 SE5       30.15F WCI  22
BOULDER MUN AP CLOUDY    30  21  69 NE3       30.14F
CENTENNIAL     CLOUDY    22  17  81 NE5       30.12F WCI  16
BROOMFIELD     PTSUNNY   27  19  74 E5        30.14F WCI  21
FORT COLLINS   MOSUNNY   28  19  69 S6        30.16F WCI  22
LONGMONT       MOSUNNY   36  20  52 CALM      30.17F
$$

COZ041-046-047-076>085-087-088-012100-
...PIKES PEAK/PALMER DIVIDE AND SOUTHERN FOOTHILLS...

CITY           SKY/WX    TMP DP  RH WIND       PRES   REMARKS
COLO. SPRINGS  PTSUNNY   29  19  66 S6        30.09F WCI  23
A. F. ACADEMY  SUNNY     27  15  60 NE5       30.07F WCI  21
ELLICOTT       SUNNY    N/A N/A N/A N9        30.08F
FALCON         SUNNY     26  15  61 N10       30.08S WCI  16
FORT CARSON    CLOUDY    32  19  59 S12       30.08F WCI  23
LIMON          MOSUNNY   22  14  71 NW15      30.13F WCI   9
MONUMENT HILL  PTSUNNY   23  14  68 NW7       30.06F WCI  15
TRINIDAD       CLOUDY    29  23  78 E10       30.10F WCI  20
$$

COZ042>045-048>051-090-091-012100-
...NORTHEAST COLORADO...

CITY           SKY/WX    TMP DP  RH WIND       PRES   REMARKS
GREELEY ARPT   MOSUNNY   28  16  59 N10       30.17S WCI  19
AKRON          LGT SNOW  19  15  84 N13       30.17F FOG     WCI   6
BURLINGTON     CLOUDY    21  12  68 N23G30    30.17F WCI   5
WRAY           LGT SNOW  16  11  79 MISG      30.25F
STERLING       MOSUNNY   27  14  59 N25G32    30.21F WCI  11
HOLYOKE        NOT AVBL
FORT MORGAN    CLOUDY    26  11  53 N20       30.19S WCI  13
$$

COZ086-089-092>099-012100-
...SOUTHEAST COLORADO...

CITY           SKY/WX    TMP DP  RH WIND       PRES   REMARKS
PUEBLO         PTSUNNY   32  22  66 S3        30.13F
LA JUNTA       MOSUNNY   37  18  46 N8        30.16F
LAMAR          PTSUNNY   34  20  56 N15       30.17F WCI  24
SPRINGFIELD      N/A     31  20  63 N16G22    30.14F WCI  20
$$



USA.gov is the U.S. government's official web portal to all federal, state and local government web resources and services.